QPF
0.10 0.09 0.08 0.07 0.05 0.04 0.03 0.03 0.03 0.03 0.02 0.02 0.03 0.04 0.04 0.04 0.05 0.05 0.04 0.04 0.04 0.03 0.03 0.04 0.03 0.04 0.04 0.04 0.04 0.04 0.04 0.05 0.04 0.02 0.02 0.02 0.02 0.01 0.01 0.01 0.01 0.02 0.01
0.08 0.06 0.06 0.05 0.04 0.03 0.02 0.01 0.01 0.01 0.01 0.01 0.02 0.02 0.02 0.03 0.04 0.05 0.04 0.03 0.04 0.05 0.06 0.06 0.05 0.04 0.03 0.04 0.03 0.03 0.02 0.03 0.03 0.02 0.01 0.01 0.01 0.01 0.01 0.01 0.02 0.02 0.02
0.08 0.06 0.03 0.02 0.02 0.02 0.02 0.02 0.01 0.01 0.01 0.01 0.01 0.02 0.02 0.02 0.02 0.03 0.04 0.04 0.04 0.03 0.05 0.07 0.07 0.05 0.04 0.03 0.04 0.03 0.02 0.03 0.04 0.03 0.01 0.01 0.01 0.01 0.01 0.02 0.02 0.01 0.01
0.06 0.05 0.02 0.01 0.01 0.00 0.01 0.01 0.01 0.01 0.01 0.01 0.00 0.01 0.02 0.03 0.02 0.02 0.04 0.04 0.04 0.03 0.03 0.06 0.07 0.07 0.06 0.04 0.04 0.04 0.05 0.05 0.05 0.05 0.03 0.02 0.01 0.01 0.02 0.02 0.01 0.01 0.01
0.04 0.04 0.03 0.02 0.02 0.01 0.01 0.01 0.01 0.01 0.01 0.01 0.01 0.01 0.02 0.02 0.01 0.02 0.04 0.04 0.04 0.03 0.03 0.03 0.04 0.06 0.07 0.07 0.05 0.05 0.06 0.05 0.06 0.06 0.05 0.03 0.02 0.01 0.01 0.01 0.02 0.01 0.01
0.03 0.03 0.03 0.04 0.03 0.03 0.02 0.01 0.02 0.01 0.01 0.02 0.01 0.02 0.02 0.01 0.01 0.03 0.04 0.03 0.03 0.04 0.04 0.03 0.04 0.05 0.07 0.08 0.07 0.05 0.05 0.05 0.05 0.05 0.04 0.03 0.02 0.02 0.02 0.03 0.03 0.03 0.02
0.04 0.03 0.03 0.03 0.03 0.03 0.03 0.03 0.02 0.01 0.02 0.01 0.02 0.02 0.02 0.02 0.03 0.03 0.03 0.03 0.02 0.03 0.04 0.04 0.04 0.04 0.05 0.05 0.07 0.07 0.04 0.04 0.04 0.05 0.04 0.03 0.02 0.02 0.04 0.03 0.03 0.03 0.02
0.08 0.05 0.04 0.04 0.04 0.04 0.05 0.04 0.03 0.03 0.02 0.02 0.02 0.03 0.03 0.03 0.04 0.04 0.04 0.04 0.02 0.02 0.02 0.03 0.05 0.04 0.04 0.04 0.04 0.06 0.06 0.04 0.03 0.03 0.02 0.02 0.02 0.03 0.04 0.04 0.04 0.03 0.02
0.17 0.10 0.07 0.06 0.06 0.07 0.08 0.07 0.05 0.04 0.04 0.04 0.05 0.06 0.05 0.05 0.05 0.06 0.06 0.05 0.04 0.03 0.02 0.03 0.04 0.04 0.04 0.05 0.05 0.05 0.06 0.04 0.03 0.03 0.02 0.02 0.02 0.02 0.03 0.04 0.04 0.03 0.02
0.17 0.15 0.09 0.06 0.07 0.07 0.08 0.10 0.09 0.07 0.06 0.05 0.05 0.05 0.05 0.04 0.05 0.05 0.05 0.05 0.05 0.04 0.04 0.04 0.05 0.05 0.05 0.07 0.07 0.07 0.06 0.05 0.05 0.03 0.03 0.02 0.02 0.02 0.02 0.03 0.03 0.02 0.02
0.12 0.11 0.11 0.08 0.08 0.08 0.08 0.10 0.12 0.10 0.07 0.06 0.05 0.04 0.04 0.04 0.04 0.03 0.04 0.03 0.05 0.06 0.05 0.05 0.06 0.07 0.06 0.06 0.07 0.05 0.04 0.04 0.05 0.05 0.04 0.04 0.03 0.03 0.02 0.02 0.03 0.02 0.02
0.08 0.06 0.06 0.08 0.11 0.12 0.10 0.08 0.08 0.08 0.08 0.07 0.06 0.04 0.03 0.03 0.03 0.03 0.03 0.04 0.04 0.04 0.05 0.05 0.05 0.07 0.08 0.08 0.07 0.06 0.04 0.03 0.03 0.04 0.04 0.03 0.03 0.02 0.02 0.02 0.02 0.02 0.02
0.06 0.04 0.04 0.05 0.07 0.09 0.09 0.06 0.05 0.05 0.05 0.05 0.05 0.04 0.03 0.02 0.03 0.03 0.03 0.04 0.05 0.05 0.05 0.05 0.05 0.05 0.06 0.06 0.05 0.05 0.05 0.04 0.04 0.05 0.04 0.04 0.04 0.03 0.03 0.03 0.03 0.03 0.03
0.04 0.04 0.04 0.04 0.04 0.03 0.03 0.04 0.03 0.03 0.03 0.03 0.03 0.03 0.02 0.02 0.02 0.02 0.03 0.03 0.04 0.04 0.04 0.04 0.05 0.07 0.06 0.05 0.04 0.04 0.04 0.05 0.05 0.05 0.05 0.06 0.06 0.06 0.04 0.04 0.04 0.04 0.04
0.02 0.03 0.03 0.03 0.03 0.03 0.02 0.02 0.02 0.02 0.02 0.03 0.02 0.02 0.02 0.02 0.01 0.01 0.02 0.02 0.04 0.04 0.04 0.04 0.04 0.04 0.05 0.04 0.03 0.03 0.04 0.04 0.05 0.05 0.06 0.06 0.06 0.07 0.06 0.05 0.04 0.04 0.04
0.02 0.02 0.02 0.02 0.02 0.02 0.01 0.01 0.03 0.03 0.03 0.03 0.03 0.03 0.02 0.01 0.01 0.01 0.02 0.02 0.02 0.03 0.03 0.03 0.03 0.04 0.04 0.05 0.05 0.05 0.05 0.05 0.06 0.07 0.09 0.10 0.09 0.10 0.11 0.09 0.06 0.06 0.05
0.03 0.03 0.03 0.02 0.02 0.02 0.02 0.02 0.03 0.03 0.03 0.03 0.03 0.03 0.02 0.01 0.01 0.01 0.03 0.03 0.03 0.03 0.03 0.02 0.03 0.04 0.04 0.03 0.03 0.04 0.04 0.05 0.05 0.06 0.08 0.09 0.11 0.13 0.14 0.13 0.10 0.09 0.08
0.04 0.04 0.04 0.03 0.02 0.01 0.02 0.02 0.04 0.04 0.05 0.04 0.03 0.03 0.03 0.03 0.03 0.03 0.02 0.02 0.03 0.03 0.03 0.04 0.04 0.05 0.05 0.04 0.03 0.04 0.05 0.05 0.05 0.06 0.06 0.07 0.09 0.10 0.12 0.13 0.12 0.11 0.10
0.02 0.02 0.04 0.04 0.03 0.02 0.02 0.02 0.03 0.04 0.05 0.04 0.03 0.03 0.04 0.05 0.05 0.05 0.04 0.03 0.03 0.04 0.05 0.06 0.05 0.04 0.04 0.04 0.04 0.04 0.05 0.06 0.05 0.06 0.06 0.07 0.08 0.09 0.10 0.11 0.12 0.12 0.10
0.02 0.02 0.03 0.03 0.03 0.03 0.04 0.04 0.04 0.04 0.04 0.04 0.04 0.04 0.04 0.05 0.04 0.05 0.06 0.06 0.06 0.05 0.04 0.05 0.05 0.04 0.04 0.05 0.05 0.05 0.06 0.07 0.07 0.07 0.08 0.07 0.07 0.08 0.08 0.10 0.11 0.10 0.09
0.03 0.03 0.04 0.03 0.03 0.04 0.05 0.05 0.06 0.07 0.06 0.06 0.05 0.05 0.05 0.04 0.04 0.05 0.05 0.05 0.05 0.04 0.04 0.04 0.04 0.05 0.06 0.07 0.07 0.06 0.06 0.06 0.07 0.08 0.09 0.09 0.09 0.09 0.09 0.09 0.09 0.08 0.07
0.04 0.04 0.03 0.03 0.03 0.03 0.04 0.05 0.06 0.07 0.08 0.09 0.08 0.06 0.06 0.04 0.04 0.03 0.02 0.02 0.02 0.02 0.03 0.03 0.03 0.04 0.04 0.04 0.04 0.06 0.07 0.06 0.07 0.08 0.10 0.10 0.09 0.09 0.09 0.08 0.08 0.07 0.07
0.04 0.04 0.04 0.04 0.03 0.03 0.02 0.03 0.05 0.05 0.07 0.10 0.10 0.08 0.07 0.06 0.05 0.03 0.03 0.02 0.02 0.01 0.01 0.01 0.01 0.01 0.01 0.02 0.02 0.02 0.04 0.06 0.06 0.06 0.08 0.08 0.08 0.08 0.07 0.07 0.06 0.06 0.06
0.05 0.05 0.05 0.04 0.03 0.03 0.02 0.02 0.02 0.04 0.05 0.08 0.08 0.08 0.08 0.07 0.05 0.04 0.03 0.01 0.01 0.01 0.01 0.00 0.00 0.00 0.00 0.01 0.01 0.01 0.01 0.02 0.04 0.04 0.05 0.06 0.06 0.05 0.05 0.05 0.04 0.04 0.05
0.03 0.03 0.03 0.03 0.03 0.03 0.02 0.02 0.03 0.03 0.03 0.05 0.06 0.06 0.05 0.04 0.04 0.04 0.04 0.02 0.01 0.01 0.00 0.00 0.00 0.00 0.00 0.00 0.00 0.00 0.01 0.02 0.03 0.03 0.03 0.04 0.04 0.05 0.05 0.05 0.04 0.03 0.04
0.02 0.02 0.02 0.02 0.03 0.03 0.03 0.03 0.03 0.03 0.03 0.03 0.03 0.03 0.04 0.03 0.03 0.03 0.03 0.03 0.02 0.01 0.01 0.01 0.00 0.00 0.00 0.00 0.00 0.00 0.00 0.01 0.01 0.02 0.03 0.03 0.04 0.05 0.05 0.05 0.04 0.04 0.04
MSLP
1006.08 1006.97 1007.80 1008.52 1009.12 1009.59 1009.97 1010.31 1010.65 1011.04 1011.49 1012.01 1012.58 1013.17 1013.73 1014.23 1014.66 1015.02 1015.31 1015.57 1015.82 1016.09 1016.38 1016.70 1017.04 1017.37 1017.66 1017.90 1018.07 1018.18 1018.23 1018.23 1018.20 1018.14 1018.04 1017.91 1017.73 1017.47 1017.15 1016.75 1016.30 1015.83 1015.38
1005.47 1006.36 1007.22 1007.98 1008.62 1009.14 1009.56 1009.93 1010.29 1010.69 1011.14 1011.66 1012.22 1012.81 1013.37 1013.88 1014.33 1014.70 1015.01 1015.28 1015.53 1015.79 1016.06 1016.36 1016.67 1016.98 1017.25 1017.49 1017.69 1017.83 1017.93 1018.01 1018.05 1018.08 1018.08 1018.03 1017.92 1017.73 1017.45 1017.07 1016.61 1016.11 1015.60
1004.92 1005.78 1006.63 1007.41 1008.08 1008.63 1009.09 1009.50 1009.89 1010.31 1010.78 1011.31 1011.88 1012.46 1013.02 1013.54 1013.99 1014.36 1014.68 1014.94 1015.19 1015.43 1015.69 1015.96 1016.25 1016.54 1016.82 1017.06 1017.28 1017.46 1017.61 1017.75 1017.87 1017.98 1018.06 1018.11 1018.08 1017.97 1017.75 1017.42 1016.98 1016.47 1015.93
1004.42 1005.21 1006.02 1006.77 1007.44 1008.02 1008.51 1008.96 1009.40 1009.86 1010.37 1010.92 1011.51 1012.10 1012.67 1013.19 1013.64 1014.01 1014.31 1014.57 1014.80 1015.04 1015.28 1015.54 1015.82 1016.11 1016.39 1016.66 1016.90 1017.11 1017.31 1017.50 1017.68 1017.85 1018.00 1018.12 1018.17 1018.14 1017.99 1017.73 1017.35 1016.88 1016.34
1003.98 1004.66 1005.37 1006.06 1006.70 1007.28 1007.80 1008.29 1008.78 1009.30 1009.86 1010.47 1011.09 1011.71 1012.30 1012.83 1013.28 1013.64 1013.94 1014.19 1014.41 1014.64 1014.88 1015.14 1015.43 1015.73 1016.04 1016.33 1016.60 1016.85 1017.08 1017.30 1017.52 1017.73 1017.92 1018.08 1018.19 1018.23 1018.16 1017.98 1017.67 1017.26 1016.76
1003.61 1004.13 1004.71 1005.30 1005.88 1006.43 1006.97 1007.50 1008.06 1008.65 1009.28 1009.95 1010.64 1011.30 1011.92 1012.47 1012.92 1013.29 1013.59 1013.83 1014.05 1014.28 1014.53 1014.81 1015.12 1015.46 1015.80 1016.13 1016.43 1016.71 1016.97 1017.20 1017.43 1017.64 1017.84 1018.02 1018.16 1018.24 1018.24 1018.13 1017.91 1017.57 1017.13
1003.33 1003.67 1004.09 1004.56 1005.05 1005.57 1006.10 1006.68 1007.29 1007.96 1008.68 1009.43 1010.19 1010.91 1011.57 1012.14 1012.62 1013.00 1013.29 1013.54 1013.77 1014.01 1014.28 1014.58 1014.93 1015.31 1015.70 1016.07 1016.41 1016.72 1016.99 1017.22 1017.42 1017.61 1017.79 1017.95 1018.09 1018.18 1018.22 1018.18 1018.03 1017.78 1017.42
1003.19 1003.35 1003.60 1003.93 1004.34 1004.80 1005.34 1005.94 1006.62 1007.36 1008.17 1009.00 1009.82 1010.61 1011.31 1011.92 1012.41 1012.80 1013.11 1013.36 1013.60 1013.85 1014.15 1014.49 1014.88 1015.31 1015.74 1016.15 1016.53 1016.85 1017.12 1017.33 1017.49 1017.63 1017.76 1017.88 1017.98 1018.07 1018.12 1018.12 1018.04 1017.87 1017.60
1003.27 1003.25 1003.36 1003.56 1003.88 1004.30 1004.82 1005.45 1006.18 1006.99 1007.86 1008.76 1009.65 1010.48 1011.22 1011.85 1012.35 1012.75 1013.06 1013.32 1013.57 1013.84 1014.15 1014.52 1014.95 1015.40 1015.87 1016.32 1016.71 1017.04 1017.30 1017.48 1017.60 1017.68 1017.74 1017.80 1017.86 1017.91 1017.96 1017.97 1017.94 1017.84 1017.65
1003.63 1003.48 1003.45 1003.56 1003.80 1004.18 1004.69 1005.34 1006.09 1006.95 1007.87 1008.81 1009.73 1010.58 1011.34 1011.97 1012.48 1012.87 1013.18 1013.43 1013.68 1013.95 1014.27 1014.65 1015.08 1015.56 1016.04 1016.49 1016.89 1017.22 1017.46 1017.61 1017.68 1017.71 1017.71 1017.70 1017.69 1017.71 1017.73 1017.75 1017.75 1017.69 1017.57
1004.32 1004.07 1003.96 1003.99 1004.18 1004.53 1005.03 1005.67 1006.44 1007.31 1008.23 1009.18 1010.09 1010.94 1011.68 1012.30 1012.79 1013.16 1013.45 1013.68 1013.91 1014.16 1014.46 1014.82 1015.24 1015.70 1016.17 1016.62 1017.00 1017.31 1017.53 1017.65 1017.69 1017.67 1017.62 1017.55 1017.50 1017.47 1017.47 1017.48 1017.49 1017.47 1017.40
1005.35 1005.04 1004.88 1004.87 1005.03 1005.35 1005.83 1006.46 1007.21 1008.05 1008.94 1009.85 1010.73 1011.53 1012.22 1012.79 1013.24 1013.58 1013.83 1014.03 1014.23 1014.44 1014.70 1015.02 1015.40 1015.82 1016.24 1016.65 1017.01 1017.29 1017.48 1017.58 1017.60 1017.56 1017.47 1017.38 1017.30 1017.24 1017.21 1017.21 1017.21 1017.21 1017.18
1006.68 1006.35 1006.16 1006.14 1006.27 1006.57 1007.02 1007.61 1008.31 1009.09 1009.92 1010.75 1011.55 1012.27 1012.89 1013.40 1013.79 1014.08 1014.29 1014.45 1014.60 1014.77 1014.97 1015.23 1015.54 1015.89 1016.25 1016.60 1016.91 1017.16 1017.33 1017.42 1017.44 1017.40 1017.32 1017.22 1017.13 1017.06 1017.01 1016.99 1016.99 1016.99 1016.97
1008.20 1007.87 1007.69 1007.66 1007.78 1008.05 1008.45 1008.98 1009.61 1010.30 1011.03 1011.75 1012.44 1013.07 1013.60 1014.04 1014.37 1014.61 1014.77 1014.90 1015.00 1015.12 1015.26 1015.45 1015.69 1015.96 1016.24 1016.53 1016.79 1017.00 1017.16 1017.25 1017.28 1017.26 1017.21 1017.13 1017.06 1016.99 1016.95 1016.92 1016.89 1016.88 1016.85
1009.78 1009.48 1009.30 1009.27 1009.37 1009.61 1009.96 1010.42 1010.95 1011.53 1012.14 1012.75 1013.32 1013.84 1014.28 1014.64 1014.92 1015.12 1015.26 1015.35 1015.42 1015.50 1015.60 1015.72 1015.88 1016.08 1016.29 1016.51 1016.71 1016.90 1017.05 1017.15 1017.22 1017.24 1017.23 1017.21 1017.17 1017.12 1017.08 1017.03 1016.99 1016.94 1016.88
1011.29 1011.01 1010.85 1010.81 1010.90 1011.09 1011.39 1011.76 1012.19 1012.67 1013.16 1013.64 1014.10 1014.52 1014.88 1015.18 1015.42 1015.60 1015.72 1015.81 1015.87 1015.93 1016.00 1016.08 1016.18 1016.31 1016.46 1016.62 1016.79 1016.96 1017.11 1017.23 1017.34 1017.42 1017.47 1017.50 1017.50 1017.49 1017.45 1017.40 1017.32 1017.23 1017.11
1012.61 1012.35 1012.20 1012.16 1012.23 1012.39 1012.62 1012.92 1013.27 1013.64 1014.02 1014.40 1014.76 1015.10 1015.40 1015.66 1015.88 1016.05 1016.19 1016.29 1016.37 1016.43 1016.49 1016.55 1016.62 1016.70 1016.81 1016.94 1017.08 1017.23 1017.39 1017.54 1017.69 1017.83 1017.94 1018.02 1018.07 1018.08 1018.05 1017.98 1017.87 1017.72 1017.54
1013.66 1013.43 1013.29 1013.26 1013.31 1013.45 1013.64 1013.88 1014.16 1014.45 1014.75 1015.05 1015.34 1015.62 1015.87 1016.11 1016.33 1016.51 1016.67 1016.80 1016.91 1016.99 1017.06 1017.12 1017.18 1017.25 1017.34 1017.44 1017.56 1017.71 1017.88 1018.07 1018.25 1018.43 1018.60 1018.72 1018.81 1018.84 1018.82 1018.73 1018.58 1018.37 1018.11
1014.44 1014.24 1014.13 1014.11 1014.17 1014.29 1014.47 1014.68 1014.91 1015.15 1015.39 1015.64 1015.88 1016.12 1016.35 1016.58 1016.80 1017.00 1017.19 1017.36 1017.50 1017.61 1017.70 1017.78 1017.84 1017.91 1017.98 1018.08 1018.20 1018.35 1018.53 1018.73 1018.94 1019.15 1019.35 1019.51 1019.62 1019.66 1019.63 1019.52 1019.33 1019.07 1018.75
1015.00 1014.84 1014.76 1014.77 1014.85 1014.98 1015.16 1015.36 1015.58 1015.80 1016.01 1016.23 1016.44 1016.66 1016.88 1017.10 1017.32 1017.53 1017.74 1017.93 1018.09 1018.24 1018.35 1018.44 1018.52 1018.59 1018.66 1018.76 1018.87 1019.02 1019.20 1019.41 1019.63 1019.86 1020.07 1020.24 1020.35 1020.39 1020.35 1020.22 1020.00 1019.70 1019.32
1015.42 1015.30 1015.27 1015.32 1015.43 1015.60 1015.80 1016.02 1016.24 1016.45 1016.66 1016.87 1017.06 1017.26 1017.46 1017.66 1017.87 1018.09 1018.29 1018.49 1018.66 1018.81 1018.94 1019.04 1019.12 1019.19 1019.27 1019.36 1019.47 1019.61 1019.78 1019.98 1020.20 1020.41 1020.61 1020.77 1020.88 1020.91 1020.85 1020.70 1020.46 1020.13 1019.72
1015.78 1015.71 1015.73 1015.83 1015.99 1016.20 1016.43 1016.68 1016.92 1017.14 1017.35 1017.54 1017.73 1017.90 1018.07 1018.25 1018.44 1018.62 1018.80 1018.98 1019.14 1019.29 1019.40 1019.50 1019.58 1019.65 1019.71 1019.79 1019.89 1020.01 1020.16 1020.34 1020.53 1020.72 1020.89 1021.02 1021.10 1021.11 1021.04 1020.87 1020.62 1020.28 1019.86
1016.16 1016.15 1016.22 1016.36 1016.57 1016.82 1017.08 1017.35 1017.61 1017.84 1018.05 1018.23 1018.39 1018.53 1018.67 1018.81 1018.95 1019.09 1019.23 1019.37 1019.50 1019.61 1019.70 1019.78 1019.84 1019.89 1019.94 1020.00 1020.08 1020.17 1020.29 1020.43 1020.58 1020.72 1020.85 1020.95 1020.99 1020.97 1020.87 1020.70 1020.44 1020.11 1019.71
1016.60 1016.63 1016.75 1016.93 1017.17 1017.44 1017.73 1018.01 1018.27 1018.50 1018.69 1018.85 1018.99 1019.09 1019.19 1019.27 1019.36 1019.45 1019.54 1019.62 1019.70 1019.77 1019.83 1019.88 1019.91 1019.94 1019.96 1019.99 1020.04 1020.10 1020.18 1020.27 1020.36 1020.46 1020.54 1020.58 1020.58 1020.52 1020.40 1020.22 1019.96 1019.64 1019.26
1017.10 1017.17 1017.31 1017.51 1017.76 1018.04 1018.32 1018.59 1018.84 1019.05 1019.23 1019.36 1019.45 1019.52 1019.57 1019.61 1019.64 1019.67 1019.71 1019.74 1019.78 1019.80 1019.82 1019.83 1019.84 1019.83 1019.83 1019.83 1019.84 1019.86 1019.89 1019.93 1019.97 1020.00 1020.02 1020.01 1019.96 1019.86 1019.71 1019.50 1019.24 1018.94 1018.58
1017.63 1017.72 1017.86 1018.07 1018.31 1018.56 1018.83 1019.07 1019.29 1019.47 1019.61 1019.70 1019.76 1019.79 1019.80 1019.79 1019.79 1019.78 1019.77 1019.76 1019.75 1019.74 1019.73 1019.70 1019.67 1019.64 1019.60 1019.57 1019.54 1019.52 1019.50 1019.48 1019.46 1019.43 1019.39 1019.32 1019.21 1019.06 1018.88 1018.65 1018.38 1018.07 1017.73
Thickness
5725 5724 5722 5720 5718 5717 5716 5715 5715 5714 5713 5712 5711 5711 5710 5708 5706 5705 5703 5703 5702 5702 5702 5700 5699 5699 5698 5697 5696 5694 5692 5689 5685 5687 5688 5690 5690 5689 5689 5689 5688 5688 5687
5721 5719 5717 5715 5714 5712 5711 5711 5711 5710 5709 5709 5708 5706 5705 5703 5702 5700 5699 5699 5698 5697 5696 5696 5695 5695 5694 5693 5691 5689 5687 5686 5683 5681 5682 5683 5684 5685 5685 5684 5684 5683 5683
5716 5714 5712 5710 5709 5708 5708 5707 5707 5706 5705 5705 5703 5702 5700 5699 5697 5696 5695 5695 5694 5693 5693 5691 5691 5690 5688 5687 5686 5684 5682 5682 5680 5677 5676 5677 5678 5679 5678 5679 5679 5678 5678
5711 5709 5707 5706 5706 5705 5704 5703 5702 5702 5701 5700 5699 5698 5696 5695 5694 5693 5692 5690 5690 5689 5689 5688 5687 5686 5684 5683 5681 5679 5678 5675 5673 5671 5670 5671 5671 5673 5672 5670 5670 5672 5672
5707 5705 5703 5703 5702 5701 5700 5699 5698 5697 5697 5696 5694 5693 5692 5691 5690 5688 5687 5687 5685 5684 5684 5684 5684 5683 5682 5680 5678 5675 5673 5670 5667 5665 5664 5664 5664 5664 5664 5664 5663 5664 5665
5702 5701 5700 5698 5696 5695 5695 5694 5693 5692 5691 5690 5689 5688 5687 5686 5686 5684 5683 5681 5680 5679 5678 5678 5678 5677 5677 5675 5673 5672 5670 5667 5664 5661 5659 5659 5659 5660 5660 5659 5657 5655 5656
5695 5696 5695 5693 5691 5690 5690 5688 5687 5686 5685 5684 5683 5682 5681 5680 5680 5678 5677 5675 5674 5673 5672 5671 5672 5672 5670 5668 5667 5666 5665 5665 5663 5660 5657 5657 5657 5657 5656 5654 5653 5652 5652
5688 5688 5688 5687 5685 5684 5682 5681 5680 5680 5678 5678 5677 5676 5674 5674 5673 5672 5670 5669 5667 5667 5666 5666 5665 5663 5663 5662 5660 5659 5658 5658 5658 5657 5656 5656 5656 5655 5654 5652 5651 5648 5648
5679 5680 5680 5680 5679 5677 5675 5674 5674 5673 5672 5671 5671 5670 5668 5667 5666 5665 5664 5662 5660 5660 5660 5659 5658 5657 5657 5656 5654 5653 5653 5653 5654 5653 5652 5652 5652 5651 5649 5646 5643 5640 5639
5673 5673 5673 5673 5672 5671 5669 5668 5667 5666 5665 5665 5664 5663 5662 5660 5660 5659 5657 5654 5652 5652 5652 5652 5651 5651 5650 5649 5648 5646 5645 5646 5646 5646 5646 5646 5646 5646 5645 5642 5640 5636 5634
5667 5666 5666 5666 5665 5665 5663 5662 5661 5659 5658 5657 5656 5655 5655 5654 5653 5652 5650 5648 5646 5645 5644 5644 5644 5644 5644 5642 5642 5641 5641 5640 5639 5639 5639 5639 5639 5639 5639 5638 5637 5634 5631
5660 5659 5658 5658 5658 5658 5655 5654 5653 5652 5650 5649 5648 5647 5647 5647 5646 5645 5643 5642 5641 5639 5638 5638 5638 5638 5637 5636 5635 5635 5634 5633 5633 5632 5631 5632 5632 5632 5633 5633 5633 5632 5631
5652 5650 5649 5649 5649 5648 5647 5645 5644 5643 5642 5641 5640 5639 5638 5639 5638 5638 5637 5636 5634 5632 5632 5632 5632 5632 5631 5630 5629 5629 5627 5626 5626 5625 5625 5626 5627 5627 5627 5626 5626 5626 5625
5644 5642 5641 5641 5640 5640 5640 5640 5638 5636 5635 5634 5633 5632 5631 5631 5631 5630 5629 5628 5627 5626 5625 5625 5625 5625 5624 5623 5622 5622 5621 5620 5619 5618 5619 5620 5620 5620 5620 5619 5618 5617 5615
5636 5635 5634 5633 5632 5631 5631 5631 5631 5630 5629 5628 5627 5626 5625 5625 5625 5625 5622 5621 5620 5619 5618 5617 5616 5616 5615 5615 5615 5614 5614 5613 5612 5611 5611 5612 5612 5613 5613 5612 5611 5609 5607
5628 5627 5626 5625 5624 5623 5622 5621 5623 5623 5623 5623 5623 5622 5622 5622 5621 5619 5617 5616 5615 5613 5611 5610 5609 5608 5608 5608 5608 5607 5607 5606 5605 5605 5604 5604 5605 5605 5605 5605 5604 5602 5601
5621 5620 5619 5619 5618 5616 5614 5613 5613 5614 5615 5615 5616 5615 5615 5614 5613 5612 5610 5609 5607 5606 5604 5602 5601 5601 5600 5600 5600 5600 5599 5599 5599 5597 5597 5597 5598 5598 5598 5597 5597 5596 5596
5614 5614 5613 5612 5611 5610 5609 5607 5607 5606 5605 5606 5608 5608 5608 5607 5606 5604 5602 5601 5598 5597 5596 5595 5594 5593 5593 5593 5592 5592 5592 5592 5591 5590 5589 5589 5589 5589 5588 5589 5589 5589 5589
5607 5607 5606 5606 5605 5604 5603 5602 5601 5601 5600 5600 5600 5600 5600 5598 5597 5596 5595 5593 5592 5590 5589 5588 5587 5586 5585 5585 5584 5584 5584 5583 5583 5582 5582 5581 5581 5580 5580 5580 5580 5581 5580
5600 5601 5601 5600 5599 5598 5597 5596 5595 5594 5593 5593 5593 5593 5592 5590 5587 5586 5586 5585 5584 5584 5583 5581 5580 5579 5578 5577 5576 5576 5575 5575 5574 5573 5573 5573 5572 5571 5571 5571 5571 5571 5571
5594 5594 5595 5593 5592 5591 5590 5590 5589 5588 5588 5587 5587 5588 5587 5584 5583 5581 5580 5579 5578 5577 5576 5574 5573 5572 5571 5569 5568 5568 5567 5566 5565 5564 5564 5563 5563 5562 5562 5562 5561 5562 5562
5588 5587 5587 5585 5585 5584 5584 5584 5584 5583 5583 5582 5581 5580 5579 5578 5576 5575 5574 5573 5572 5570 5569 5568 5566 5565 5563 5562 5561 5560 5559 5558 5557 5556 5555 5555 5554 5554 5554 5553 5553 5553 5553
5582 5581 5580 5579 5578 5578 5578 5578 5578 5577 5577 5576 5575 5573 5571 5570 5569 5568 5567 5566 5565 5564 5562 5561 5559 5558 5557 5556 5554 5553 5552 5551 5550 5548 5547 5547 5546 5546 5546 5545 5544 5544 5545
5575 5575 5574 5573 5572 5572 5572 5572 5571 5571 5570 5569 5568 5566 5565 5563 5562 5561 5560 5559 5558 5556 5554 5553 5552 5551 5550 5549 5547 5546 5546 5545 5543 5542 5541 5539 5539 5538 5537 5537 5537 5537 5536
5569 5569 5568 5567 5566 5565 5565 5565 5564 5564 5563 5562 5560 5558 5557 5555 5554 5553 5552 5550 5549 5547 5546 5545 5544 5543 5542 5541 5540 5539 5538 5538 5536 5535 5534 5532 5531 5530 5529 5529 5529 5528 5528
5563 5562 5562 5561 5560 5559 5558 5557 5557 5556 5555 5554 5552 5550 5549 5548 5547 5546 5544 5543 5541 5539 5538 5537 5536 5535 5534 5533 5532 5531 5530 5529 5528 5527 5526 5524 5523 5522 5522 5521 5521 5520 5520